الكل
Nurruwyn Property Airport (Wee Waa New South Wales) YNUR حالة الطقس
There is no TAF data available at YNUR. Showing TAF data for YNBR (20 mi E).
توقع منطقة محطة المطار NAA (لا توجد بيانات لـYNUR)
| Date | Time (AEST) | Flight Rules | Wind Dir. | Speed | Type | Height AGL (ft) | Visibility | Remarks | ||||||
|---|---|---|---|---|---|---|---|---|---|---|---|---|---|---|
There is no METAR data available at YNUR. Showing METAR data for YNBR (20 mi E).
محفوظات أحدث تقرير روتيني عن حالة الطقس من أجل الطيران (الميتار) NAA ( لا توجد بيانات لـYNUR)
| Date | Time (AEST) | Flight Rules | Wind Dir. | Speed | Type | Height AGL (ft) | Visibility | Temp (°C) | Temp (°F) | Dew Point (°C) | Dew Point (°F) | Rel. Humid. | Pressure | Density Altitude | Remarks |
|---|---|---|---|---|---|---|---|---|---|---|---|---|---|---|---|
| 07-سبت | 03:00 | VFR | 290° | 3 kt | 10000 meters | 8° | 46° | 6° | 42° | 87% | 1019 mb | -223 ft | |||
| 07-سبت | 02:00 | VFR | 30° | 3 kt | 10000 meters | 7° | 44° | 6° | 42° | 93% | 1020 mb | -373 ft | |||
| 07-سبت | 01:00 | VFR | 130° | 1 kt | 10000 meters | 8° | 46° | 6° | 42° | 87% | 1021 mb | -282 ft | |||
| 07-سبت | 00:00 | VFR | 190° | 5 kt | 10000 meters | 9° | 48° | 6° | 42° | 81% | 1021 mb | -162 ft | |||
| 06-سبت | 23:00 | VFR | 140° | 7 kt | 10000 meters | 14° | 57° | 6° | 42° | 58% | 1021 mb | 438 ft | |||
| 06-سبت | 22:00 | VFR | 330° | 2 kt | 10000 meters | 10° | 50° | 6° | 42° | 76% | 1021 mb | -42 ft | |||
| 06-سبت | 21:00 | VFR | 140° | 8 kt | 10000 meters | 16° | 60° | 6° | 42° | 51% | 1020 mb | 707 ft | |||
| 06-سبت | 20:00 | VFR | 160° | 4 kt | 10000 meters | 15° | 59° | 6° | 42° | 55% | 1020 mb | 587 ft | |||
| 06-سبت | 19:00 | VFR | 190° | 5 kt | 10000 meters | 16° | 60° | 7° | 44° | 55% | 1019 mb | 737 ft | |||
| 06-سبت | 18:00 | VFR | 160° | 2 kt | 10000 meters | 20° | 68° | 5° | 41° | 37% | 1018 mb | 1,246 ft | |||
| 06-سبت | 17:00 | VFR | 100° | 4 kt | 10000 meters | 23° | 73° | 5° | 41° | 31% | 1017 mb | 1,636 ft | |||
| 06-سبت | 16:00 | VFR | 100° | 6 kt | 10000 meters | 24° | 75° | 6° | 42° | 31% | 1017 mb | 1,756 ft | |||
| 06-سبت | 15:00 | VFR | 180° | 6 kt | 10000 meters | 24° | 75° | 5° | 41° | 29% | 1017 mb | 1,756 ft | |||
| 06-سبت | 14:00 | VFR | 70° | 4 kt | 10000 meters | 23° | 73° | 6° | 42° | 33% | 1018 mb | 1,606 ft | |||
| 06-سبت | 13:00 | VFR | 190° | 4 kt | 10000 meters | 22° | 71° | 7° | 44° | 38% | 1018 mb | 1,486 ft | |||
| 06-سبت | 12:00 | VFR | 190° | 7 kt | 10000 meters | 21° | 69° | 6° | 42° | 38% | 1019 mb | 1,337 ft | |||
| 06-سبت | 11:00 | VFR | 170° | 10 kt | 10000 meters | 20° | 68° | 6° | 42° | 40% | 1020 mb | 1,187 ft | |||
| 06-سبت | 10:00 | VFR | 160° | 10 kt | 10000 meters | 18° | 64° | 8° | 46° | 52% | 1020 mb | 947 ft | |||
| 06-سبت | 09:00 | VFR | 170° | 12 kt | 10000 meters | 17° | 62° | 8° | 46° | 55% | 1020 mb | 827 ft | |||
| 06-سبت | 08:00 | VFR | 170° | 12 kt | 10000 meters | 16° | 60° | 7° | 44° | 55% | 1019 mb | 737 ft | |||
| 06-سبت | 07:00 | VFR | 160° | 9 kt | 10000 meters | 14° | 57° | 9° | 48° | 72% | 1019 mb | 497 ft | |||
| 06-سبت | 06:00 | VFR | 150° | 7 kt | 10000 meters | 14° | 57° | 9° | 48° | 72% | 1018 mb | 526 ft | |||
| 06-سبت | 05:00 | VFR | 150° | 9 kt | Few |
12,500 |
10000 meters | 16° | 60° | 11° | 51° | 72% | 1017 mb | 796 ft | |
| 06-سبت | 04:00 | VFR | 210° | 4 kt | 10000 meters | 18° | 64° | 10° | 50° | 59% | 1016 mb | 1,066 ft |
تسجيل الدخول
| مُتصفحك غير مُدعَّم. قم بترقية متصفحك |
